Regional Weather Roundup
Issued by NWS

Home | Current Version | Previous Version | Graphics & Text | Print | Product List | Glossary On
Versions: 1 2 3 4 5 6 7 8 9 10 11 12 13 14 15 16 17 18 19 20 21 22 23 24 25 26 27
000
ASUS45 KBOU 172210
RWRCO

WEATHER ROUNDUP FOR COLORADO
NATIONAL WEATHER SERVICE DENVER/BOULDER CO
300 PM MST WED JAN 17 2018

NOTE: "FAIR" INDICATES FEW OR NO CLOUDS BELOW 12000 FEET WITH NO
SIGNIFICANT WEATHER AND/OR OBSTRUCTIONS TO VISIBILITY.

COZ001>005-013-030-031-172300-
...NORTHWEST COLORADO...

CITY           SKY/WX    TMP DP  RH WIND       PRES   REMARKS
CRAIG          FAIR      34  13  41 SE3       30.36F
HAYDEN         FAIR     N/A N/A N/A NE3       30.37F
MEEKER         FAIR      43  14  31 SW5       30.33F
RABBIT EARS PA FAIR      27  19  74 W8        30.36R WCI  18
STEAMBOAT SPGS FAIR      28  11  47 CALM      30.36F
WALDEN         FAIR      34   7  32 CALM      30.34S
$$

COZ006>008-011-172300-
...WEST CENTRAL VALLEYS...

CITY           SKY/WX    TMP DP  RH WIND       PRES   REMARKS
GRAND JUNCTION FAIR      44  12  27 CALM      30.34F
MONTROSE       FAIR      41  11  29 NW6       30.36F
EAGLE          FAIR      36   2  23 CALM      30.40F
RIFLE          FAIR      44   6  21 CALM      30.35F
DELTA          FAIR      46  10  22 CALM      30.35F
NUCLA          FAIR      45  10  24 N5        30.36F
$$

COZ017>023-064>068-172300-
...SOUTHWEST COLORADO...

CITY           SKY/WX    TMP DP  RH WIND       PRES   REMARKS
DURANGO        FAIR      43  19  38 CALM      30.27F
CORTEZ         FAIR      43  20  39 SW6       30.29F
PAGOSA SPRINGS FAIR      43  15  32 CALM      30.28S
TELLURIDE      FAIR      38   9  29 W13       30.33S
WOLF CREEK PAS FAIR      30 -17  12 N6        30.40S WCI  24
$$

COZ009-010-012-014-032>034-037-058>063-172300-
...CENTRAL COLORADO...

CITY           SKY/WX    TMP DP  RH WIND       PRES   REMARKS
ASPEN          FAIR      39   7  26 N8        30.32S
BUENA VISTA    FAIR      48   2  15 NW14      30.25F
COPPER MTN     NOT AVBL
BERTHOUD PASS  FAIR      18   7  62 NW14      30.36S WCI   4
COTTONWOOD PAS   N/A     45   0  15 CALM      30.31S
GUNNISON       FAIR      32   5  32 CALM      30.35F
KREMMLING      FAIR      32   5  32 CALM      30.41S
LEADVILLE      FAIR      36  10  34 N12       30.31S
MONARCH PASS   FAIR      30   1  29 SW9       30.46S WCI  22
SALIDA         FAIR      52 -10   7 SE6       30.32S
SUNLIGHT       FAIR      28   9  43 CALM      30.42R
WILKERSON PASS FAIR      34 -15  12 SW3       30.37R
$$

COZ069>075-172300-
...SAN LUIS VALLEY/SANGRE DE CRISTO MOUNTAINS...

CITY           SKY/WX    TMP DP  RH WIND       PRES   REMARKS
ALAMOSA        FAIR      42   0  17 NW7       30.27F
DEL NORTE      FAIR      39   5  24 E3        30.29S
LA VETA PASS   FAIR      34   3  27 N14G20      N/A  WCI  24
SAGUACHE       FAIR      41  10  28 S5        30.29S
$$

COZ035-036-038>040-172300-
...NORTHERN COLORADO FRONT RANGE...

CITY           SKY/WX    TMP DP  RH WIND       PRES   REMARKS
DENVER INTL AP FAIR      50   7  17 VRB3      30.26R
DMNS CITY PARK NOT AVBL
AURORA         SUNNY     49   9  19 E6        30.26R
FRONT RANGE AP NOT AVBL
ERIE MUNI ARPT FAIR      52  -3  10 S5        30.30S
BOULDER MUN AP FAIR      52   3  14 SE5       30.24S
CENTENNIAL     FAIR      49   5  16 E5        30.26R
BROOMFIELD     SUNNY     50  -2  11 SE6       30.26S
FORT COLLINS   FAIR      50  14  23 S9        30.25R
LONGMONT       FAIR      55   3  12 S3        30.26R
$$

COZ041-046-047-076>085-087-088-172300-
...PIKES PEAK/PALMER DIVIDE AND SOUTHERN FOOTHILLS...

CITY           SKY/WX    TMP DP  RH WIND       PRES   REMARKS
COLO. SPRINGS  FAIR      52   0  12 E8        30.26S
A. F. ACADEMY  FAIR      50  -7   9 N9        30.25S
SCHRIEVER AFB  FAIR      50  -1  12 NE12      30.26S
CHEYENNE MTN   FAIR      40  -2  16 W3        30.21S
ELLICOTT         N/A    N/A N/A N/A NE10      30.25S
FALCON         FAIR      47  -1  13 N8        30.28S
FORT CARSON    FAIR      54  -6   8 E7        30.23S
LIMON          FAIR      48   1  14 N13       30.26S
MONUMENT HILL  FAIR      41   5  22 NE8       30.29S
CANON CITY     FAIR      55   1  11 E9G16     30.23S
WALSENBURG     FAIR      54   0  11 NE7       30.26S
TRINIDAD       FAIR      54   8  16 NE9       30.25R
$$

COZ042>045-048>051-090-091-172300-
...NORTHEAST COLORADO...

CITY           SKY/WX    TMP DP  RH WIND       PRES   REMARKS
GREELEY ARPT   FAIR      49  15  25 SW3       30.26R
AKRON          FAIR      47  15  27 N12G17    30.25R
BURLINGTON     FAIR      50   0  12 VRB6      30.25S
WRAY           FAIR      54   5  14 NW9       30.24R
YUMA           FAIR      48  10  21 NW12      30.23S
STERLING       FAIR      50  19  29 N16G22    30.23R
HOLYOKE        FAIR      50  21  32 N12       30.24S
FORT MORGAN    FAIR      53   7  16 N14       30.25R
$$

COZ086-089-092>099-172300-
...SOUTHEAST COLORADO...

CITY           SKY/WX    TMP DP  RH WIND       PRES   REMARKS
PUEBLO         FAIR      53   9  17 S6        30.23S
LA JUNTA       FAIR      48  14  25 SE3       30.25S
LAMAR          FAIR      49  13  23 N3        30.25S
SPRINGFIELD      N/A     50  10  20 VRB5      30.24S
$$




USA.gov is the U.S. government's official web portal to all federal, state and local government web resources and services.